Weather History for Saranac Lake, NY

Change the Weather History Date:

Saturday, August 3, 2013

  Actual Average Record
Temperature  
Mean Temperature 61 °F 63 °F  
Max Temperature 67 °F 75 °F 92 °F (1988)
Min Temperature 54 °F 50 °F 33 °F (1976)
Degree Days  
Heating Degree Days 6 4  
Month to date heating degree days 12  
Since 1 June heating degree days 290  
Since 1 July heating degree days 106  
Cooling Degree Days 0 1  
Month to date cooling degree days 0 3  
Year to date cooling degree days 146 78  
Since 1 June cooling degree days 136 75  
Growing Degree Days 10 (Base 50)    
Moisture  
Dew Point 54 °F    
Average Humidity 82    
Maximum Humidity 100    
Minimum Humidity 63    
Precipitation  
Precipitation 0.19 in 0.13 in 1.20 in (1969)
Month to date precipitation 0.84 0.41  
Year to date precipitation 26.56 20.80  
Sea Level Pressure  
Sea Level Pressure 29.84 in    
Wind  
Wind Speed 8 mph (WSW)    
Max Wind Speed 16 mph    
Max Gust Speed 26 mph    
Visibility 10 miles    
Events Rain    
T = Trace of Precipitation, MM = Missing Value Source: NWS Daily Summary

Daily Weather History Graph

Daily Weather History Graph

Search for Another Location

Airport:

Trip Planner

Search our weather history database for the weather conditions in past years. The results will help you decide how hot, cold, wet, or windy it might be!

Date:

Astronomy

Aug. 03, 2013 Rise Set
Actual Time 5:46 AM EDT 8:18 PM EDT
Civil Twilight 5:13 AM EDT 8:51 PM EDT
Nautical Twilight 4:32 AM EDT 9:32 PM EDT
Astronomical Twilight 3:45 AM EDT 10:19 PM EDT
Moon 2:52 AM EDT (8/3) 6:00 PM EDT (8/3)
Length of Visible Light 15h 38m
Length of Day
14h 32m
Waning Crescent, 9% of the Moon is Illuminated
Aug 3
Waning Crescent
Aug 6
New
Aug 14
First Quarter
Aug 20
Full
Aug 28
Last Quarter

Hourly Weather History & Observations

Time (EDT) Temp. Dew Point Humidity Pressure Visibility Wind Dir Wind Speed Gust Speed Precip Events Conditions
12:25 AM 57.2 °F 55.4 °F 94% 29.85 in 10.0 mi SW 4.6 mph - N/A   Mostly Cloudy
12:51 AM 59.0 °F 55.9 °F 90% 29.82 in 10.0 mi SW 5.8 mph - N/A   Overcast
1:51 AM 57.9 °F 55.9 °F 93% 29.81 in 10.0 mi WSW 4.6 mph - 0.02 in Rain Light Rain
2:51 AM 57.9 °F 55.0 °F 90% 29.80 in 7.0 mi West 8.1 mph - 0.00 in Rain Light Rain
3:51 AM 55.9 °F 55.0 °F 97% 29.80 in 6.0 mi SSW 8.1 mph - 0.11 in Rain Light Rain
4:51 AM 55.9 °F 55.0 °F 97% 29.79 in 7.0 mi South 8.1 mph - 0.05 in Rain Light Rain
5:51 AM 55.0 °F 53.1 °F 93% 29.81 in 10.0 mi SW 8.1 mph - 0.01 in   Partly Cloudy
6:09 AM 55.4 °F 53.6 °F 94% 29.82 in 10.0 mi SW 8.1 mph - N/A   Mostly Cloudy
6:24 AM 55.4 °F 53.6 °F 94% 29.82 in 10.0 mi SW 9.2 mph - N/A   Overcast
6:51 AM 55.9 °F 55.0 °F 97% 29.82 in 10.0 mi SW 8.1 mph - N/A   Overcast
7:51 AM 57.0 °F 55.9 °F 96% 29.82 in 9.0 mi SW 4.6 mph - N/A   Overcast
8:51 AM 60.1 °F 57.0 °F 90% 29.82 in 10.0 mi West 8.1 mph - N/A   Overcast
9:13 AM 60.8 °F 55.4 °F 82% 29.83 in 10.0 mi WSW 10.4 mph - N/A   Mostly Cloudy
9:28 AM 62.6 °F 57.2 °F 82% 29.82 in 10.0 mi SW 6.9 mph - N/A   Mostly Cloudy
9:35 AM 62.6 °F 57.2 °F 82% 29.82 in 10.0 mi WSW 10.4 mph - N/A   Mostly Cloudy
9:51 AM 62.1 °F 55.9 °F 80% 29.82 in 10.0 mi WSW 10.4 mph 16.1 mph N/A   Mostly Cloudy
10:14 AM 60.8 °F 53.6 °F 77% 29.82 in 10.0 mi WSW 10.4 mph 24.2 mph N/A   Scattered Clouds
10:51 AM 62.1 °F 53.1 °F 72% 29.83 in 10.0 mi WSW 13.8 mph 20.7 mph N/A   Overcast
11:51 AM 63.0 °F 53.1 °F 70% 29.83 in 10.0 mi West 10.4 mph 18.4 mph N/A   Overcast
12:47 PM 64.4 °F 51.8 °F 64% 29.84 in 10.0 mi West 11.5 mph 23.0 mph N/A   Scattered Clouds
12:51 PM 63.0 °F 51.1 °F 65% 29.83 in 10.0 mi WSW 11.5 mph 20.7 mph N/A   Mostly Cloudy
1:51 PM 63.0 °F 51.1 °F 65% 29.83 in 10.0 mi WSW 11.5 mph 17.3 mph N/A   Overcast
2:51 PM 64.0 °F 52.0 °F 65% 29.83 in 10.0 mi Variable 5.8 mph - N/A   Overcast
3:51 PM 64.0 °F 52.0 °F 65% 29.84 in 10.0 mi WSW 11.5 mph 18.4 mph N/A   Overcast
4:51 PM 64.9 °F 53.1 °F 65% 29.84 in 10.0 mi West 8.1 mph 18.4 mph N/A   Mostly Cloudy
5:51 PM 64.9 °F 53.1 °F 65% 29.85 in 10.0 mi West 9.2 mph 16.1 mph N/A   Overcast
6:51 PM 63.0 °F 54.0 °F 72% 29.84 in 10.0 mi Variable 4.6 mph - N/A   Overcast
7:51 PM 61.0 °F 54.0 °F 78% 29.86 in 10.0 mi WSW 8.1 mph - N/A   Scattered Clouds
8:51 PM 59.0 °F 55.9 °F 90% 29.87 in 10.0 mi WSW 4.6 mph - N/A   Mostly Cloudy
9:51 PM 57.9 °F 55.9 °F 93% 29.88 in 10.0 mi SW 3.5 mph - N/A   Mostly Cloudy
10:30 PM 57.2 °F 55.4 °F 94% 29.88 in 10.0 mi Calm Calm - N/A   Mostly Cloudy
10:40 PM 57.2 °F 55.4 °F 94% 29.88 in 10.0 mi Calm Calm - N/A   Mostly Cloudy
10:51 PM 57.0 °F 55.9 °F 96% 29.87 in 10.0 mi WSW 3.5 mph - N/A   Mostly Cloudy
11:06 PM 57.2 °F 55.4 °F 94% 29.88 in 10.0 mi WSW 6.9 mph - N/A   Scattered Clouds
11:51 PM 57.0 °F 54.0 °F 89% 29.87 in 10.0 mi WSW 8.1 mph - N/A   Mostly Cloudy